Year,Month,Day,Hour,Minute,Value (Times are PST for temperature in C)
2004,03,14,09,18,8.80
2004,03,14,09,19,8.70
2004,03,14,09,20,8.80
2004,03,14,09,21,8.80
2004,03,14,09,22,8.80
2004,03,14,09,23,8.90
2004,03,14,09,24,8.90
2004,03,14,09,25,8.90
2004,03,14,09,26,8.90
2004,03,14,09,27,8.90
2004,03,14,09,28,8.90
2004,03,14,09,29,8.90
2004,03,14,09,30,8.90
2004,03,14,09,31,8.90
2004,03,14,09,32,8.90
2004,03,14,09,33,8.90
2004,03,14,09,34,8.90
2004,03,14,09,35,8.90
2004,03,14,09,36,8.90
2004,03,14,09,37,8.90
2004,03,14,09,38,8.90
2004,03,14,09,39,8.80
2004,03,14,09,40,8.70
2004,03,14,09,41,8.80
2004,03,14,09,42,8.80
2004,03,14,09,43,8.80
2004,03,14,09,44,8.80
2004,03,14,09,45,8.80
2004,03,14,09,46,8.80
2004,03,14,09,47,8.80
2004,03,14,09,48,8.80
2004,03,14,09,49,8.70
2004,03,14,09,50,8.60
2004,03,14,09,51,8.50
2004,03,14,09,52,8.50
2004,03,14,09,53,8.50
2004,03,14,09,54,8.40
2004,03,14,09,55,8.40
2004,03,14,09,56,8.30
2004,03,14,09,57,8.40
2004,03,14,09,58,8.40
2004,03,14,09,59,8.40
2004,03,14,10,00,8.40
2004,03,14,10,01,8.40
2004,03,14,10,02,8.40
2004,03,14,10,03,8.40
2004,03,14,10,04,8.50
2004,03,14,10,05,8.40
2004,03,14,10,06,8.40
2004,03,14,10,07,8.50
2004,03,14,10,08,8.50
2004,03,14,10,09,8.50
2004,03,14,10,10,8.50
2004,03,14,10,11,8.60
2004,03,14,10,12,8.60
2004,03,14,10,13,8.70
2004,03,14,10,14,8.70
2004,03,14,10,15,8.60
2004,03,14,10,16,8.60
2004,03,14,10,17,8.50
2004,03,14,10,18,8.50
2004,03,14,10,19,8.40
2004,03,14,10,20,8.40
2004,03,14,10,21,8.40
2004,03,14,10,22,8.40
2004,03,14,10,23,8.50
2004,03,14,10,24,8.50
2004,03,14,10,25,8.50
2004,03,14,10,26,8.60
2004,03,14,10,27,8.60
2004,03,14,10,28,8.60
2004,03,14,10,29,8.50
2004,03,14,10,30,8.50
2004,03,14,10,31,8.50
2004,03,14,10,32,8.50
2004,03,14,10,33,8.60
2004,03,14,10,34,8.60
2004,03,14,10,35,8.60
2004,03,14,10,36,8.60
2004,03,14,10,37,8.60
2004,03,14,10,38,8.50
2004,03,14,10,39,8.50
2004,03,14,10,40,8.50
2004,03,14,10,41,8.60
2004,03,14,10,42,8.50
2004,03,14,10,43,8.50
2004,03,14,10,44,8.40
2004,03,14,10,45,8.40
2004,03,14,10,46,8.30
2004,03,14,10,47,8.30
2004,03,14,10,48,8.20
2004,03,14,10,49,8.20
2004,03,14,10,50,8.20
2004,03,14,10,51,8.30
2004,03,14,10,52,8.20
2004,03,14,10,53,8.30
2004,03,14,10,54,8.30
2004,03,14,10,55,8.30
2004,03,14,10,56,8.30
2004,03,14,10,57,8.20
2004,03,14,10,58,8.20
2004,03,14,10,59,8.30
2004,03,14,11,00,8.30
2004,03,14,11,01,8.30
2004,03,14,11,02,8.30
2004,03,14,11,03,8.30
2004,03,14,11,04,8.30
2004,03,14,11,05,8.20
2004,03,14,11,06,8.30
2004,03,14,11,07,8.30
2004,03,14,11,08,8.30
2004,03,14,11,09,8.30
2004,03,14,11,10,8.30
2004,03,14,11,11,8.40
2004,03,14,11,12,8.40
2004,03,14,11,13,8.40
2004,03,14,11,14,8.40
2004,03,14,11,15,8.40
2004,03,14,11,16,8.50
2004,03,14,11,17,8.60
2004,03,14,11,18,8.60
2004,03,14,11,19,8.70
2004,03,14,11,20,8.70
2004,03,14,11,21,8.70
2004,03,14,11,22,8.70
2004,03,14,11,23,8.80
2004,03,14,11,24,8.90
2004,03,14,11,25,8.90
2004,03,14,11,26,9.00
2004,03,14,11,27,9.10
2004,03,14,11,28,9.10
2004,03,14,11,29,9.10
2004,03,14,11,30,9.00
2004,03,14,11,31,9.00
2004,03,14,11,32,9.00
2004,03,14,11,33,9.00
2004,03,14,11,34,9.00
2004,03,14,11,35,8.90
2004,03,14,11,36,9.00
2004,03,14,11,37,9.00
2004,03,14,11,38,8.90
2004,03,14,11,39,9.00
2004,03,14,11,40,9.00
2004,03,14,11,41,9.10
2004,03,14,11,42,9.00
2004,03,14,11,43,9.10
2004,03,14,11,44,9.10
2004,03,14,11,45,9.20
2004,03,14,11,46,9.20
2004,03,14,11,47,9.20
2004,03,14,11,48,9.20
2004,03,14,11,49,9.20
2004,03,14,11,50,9.30
2004,03,14,11,51,9.30
2004,03,14,11,52,9.30
2004,03,14,11,53,9.40
2004,03,14,11,54,9.30
2004,03,14,11,55,9.30
2004,03,14,11,56,9.40
2004,03,14,11,57,9.40
2004,03,14,11,58,9.40
2004,03,14,11,59,9.40
2004,03,14,12,00,9.40
2004,03,14,12,01,9.50
2004,03,14,12,02,9.40
2004,03,14,12,03,9.40
2004,03,14,12,04,9.40
2004,03,14,12,05,9.30
2004,03,14,12,06,9.30
2004,03,14,12,07,9.30
2004,03,14,12,08,9.30
2004,03,14,12,09,9.40
2004,03,14,12,10,9.40
2004,03,14,12,11,9.40
2004,03,14,12,12,9.40
2004,03,14,12,13,9.40
2004,03,14,12,14,9.40
2004,03,14,12,15,9.40
2004,03,14,12,16,9.40
2004,03,14,12,17,9.30
2004,03,14,12,18,9.40
2004,03,14,12,19,9.50
2004,03,14,12,20,9.70
2004,03,14,12,21,9.80
2004,03,14,12,22,10.00
2004,03,14,12,23,10.00
2004,03,14,12,24,10.00
2004,03,14,12,25,9.90
2004,03,14,12,26,9.90
2004,03,14,12,27,9.90
2004,03,14,12,28,9.90
2004,03,14,12,29,9.80
2004,03,14,12,30,9.80
2004,03,14,12,31,9.90
2004,03,14,12,32,9.90
2004,03,14,12,33,9.80
2004,03,14,12,34,9.70
2004,03,14,12,35,9.70
2004,03,14,12,36,9.60
2004,03,14,12,37,9.50
2004,03,14,12,38,9.40
2004,03,14,12,39,9.40
2004,03,14,12,40,9.50
2004,03,14,12,41,9.40
2004,03,14,12,42,9.50
2004,03,14,12,43,9.50
2004,03,14,12,44,9.50
2004,03,14,12,45,9.60
2004,03,14,12,46,9.60
2004,03,14,12,47,9.70
2004,03,14,12,48,9.70
2004,03,14,12,49,9.90
2004,03,14,12,50,9.90
2004,03,14,12,51,9.90
2004,03,14,12,52,10.00
2004,03,14,12,53,10.10
2004,03,14,12,54,10.00
2004,03,14,12,55,10.00
2004,03,14,12,56,10.00
2004,03,14,12,57,9.90
2004,03,14,12,58,9.90
2004,03,14,12,59,9.90
2004,03,14,13,00,9.90
2004,03,14,13,01,9.90
2004,03,14,13,02,9.90
2004,03,14,13,03,9.90
2004,03,14,13,04,9.90
2004,03,14,13,05,9.90
2004,03,14,13,06,10.00
2004,03,14,13,07,10.10
2004,03,14,13,08,10.30
2004,03,14,13,09,10.30
2004,03,14,13,10,10.40
2004,03,14,13,11,10.40
2004,03,14,13,12,10.50
2004,03,14,13,13,10.50
2004,03,14,13,14,10.60
2004,03,14,13,15,10.70
2004,03,14,13,16,10.70
2004,03,14,13,17,10.70
2004,03,14,13,18,10.70
2004,03,14,13,19,10.80
2004,03,14,13,20,10.90
2004,03,14,13,21,11.10
2004,03,14,13,22,11.30
2004,03,14,13,23,11.40
2004,03,14,13,24,11.40
2004,03,14,13,25,11.30
2004,03,14,13,26,11.40
2004,03,14,13,27,11.50
2004,03,14,13,28,11.50
2004,03,14,13,29,11.50
2004,03,14,13,30,11.40
2004,03,14,13,31,11.30
2004,03,14,13,32,11.40
2004,03,14,13,33,11.50
2004,03,14,13,34,11.60
2004,03,14,13,35,11.60
2004,03,14,13,36,11.60
2004,03,14,13,37,11.70
2004,03,14,13,38,11.80
2004,03,14,13,39,11.90
2004,03,14,13,40,12.10
2004,03,14,13,41,12.10
2004,03,14,13,42,12.10
2004,03,14,13,43,12.00
2004,03,14,13,44,12.00
2004,03,14,13,45,11.90
2004,03,14,13,46,11.90
2004,03,14,13,47,11.90
2004,03,14,13,48,11.90
2004,03,14,13,49,11.80
2004,03,14,13,50,11.80
2004,03,14,13,51,11.80
2004,03,14,13,52,11.90
2004,03,14,13,53,12.00
2004,03,14,13,54,12.10
2004,03,14,13,55,12.30
2004,03,14,13,56,12.30
2004,03,14,13,57,12.30
2004,03,14,13,58,12.40
2004,03,14,13,59,12.50
2004,03,14,14,00,12.60
2004,03,14,14,01,12.70
2004,03,14,14,02,12.80
2004,03,14,14,03,12.90
2004,03,14,14,04,13.10
2004,03,14,14,05,13.20
2004,03,14,14,06,13.30
2004,03,14,14,07,13.30
2004,03,14,14,08,13.50
2004,03,14,14,09,13.70
2004,03,14,14,10,14.10
2004,03,14,14,11,14.40
2004,03,14,14,12,14.70
2004,03,14,14,13,15.00
2004,03,14,14,14,15.20
2004,03,14,14,15,15.30
2004,03,14,14,16,15.50
2004,03,14,14,17,15.60
2004,03,14,14,18,15.80
2004,03,14,14,19,15.90
2004,03,14,14,20,15.90
2004,03,14,14,21,15.90
2004,03,14,14,22,16.00
2004,03,14,14,23,15.90
2004,03,14,14,24,15.90
2004,03,14,14,25,16.00
2004,03,14,14,26,15.90
2004,03,14,14,27,16.00
2004,03,14,14,28,16.10
2004,03,14,14,29,16.10
2004,03,14,14,30,16.20
2004,03,14,14,31,16.30
2004,03,14,14,32,16.20
2004,03,14,14,33,16.10
2004,03,14,14,34,15.90
2004,03,14,14,35,15.90
2004,03,14,14,36,15.60
2004,03,14,14,37,15.60
2004,03,14,14,38,15.60
2004,03,14,14,39,15.70
2004,03,14,14,40,15.60
2004,03,14,14,41,15.70
2004,03,14,14,42,15.60
2004,03,14,14,43,15.40
2004,03,14,14,44,15.40
2004,03,14,14,45,15.20
2004,03,14,14,46,15.30
2004,03,14,14,47,15.40
2004,03,14,14,48,15.50
2004,03,14,14,49,15.40
2004,03,14,14,50,15.50
2004,03,14,14,51,15.50
2004,03,14,14,52,15.40
2004,03,14,14,53,15.30
2004,03,14,14,54,15.20
2004,03,14,14,55,15.10
2004,03,14,14,56,15.10
2004,03,14,14,57,15.10
2004,03,14,14,58,15.00
2004,03,14,14,59,15.10
2004,03,14,15,00,15.00
2004,03,14,15,01,14.60
2004,03,14,15,02,14.50
2004,03,14,15,03,14.40
2004,03,14,15,04,14.30
2004,03,14,15,05,14.10
2004,03,14,15,06,14.20
2004,03,14,15,07,14.20
2004,03,14,15,08,14.20
2004,03,14,15,09,14.30
2004,03,14,15,10,14.30
2004,03,14,15,11,14.20
2004,03,14,15,12,14.20
2004,03,14,15,13,14.10
2004,03,14,15,14,13.90
2004,03,14,15,15,13.90
2004,03,14,15,16,13.90
2004,03,14,15,17,13.80
2004,03,14,15,18,13.80
2004,03,14,15,19,13.70
2004,03,14,15,20,13.70
2004,03,14,15,21,13.70
2004,03,14,15,22,13.60
2004,03,14,15,23,13.50
2004,03,14,15,24,13.50
2004,03,14,15,25,13.60
2004,03,14,15,26,13.70
2004,03,14,15,27,13.80
2004,03,14,15,28,13.70
2004,03,14,15,29,13.60
2004,03,14,15,30,13.40
2004,03,14,15,31,13.30
2004,03,14,15,32,13.20
2004,03,14,15,33,13.10
2004,03,14,15,34,13.00
2004,03,14,15,35,13.10
2004,03,14,15,36,13.10
2004,03,14,15,37,12.90
2004,03,14,15,38,12.90
2004,03,14,15,39,12.90
2004,03,14,15,40,12.90
2004,03,14,15,41,12.90
2004,03,14,15,42,12.90
2004,03,14,15,43,13.00
2004,03,14,15,44,12.90
2004,03,14,15,45,12.80
2004,03,14,15,46,12.60
2004,03,14,15,47,12.60
2004,03,14,15,48,12.70
2004,03,14,15,49,12.60
2004,03,14,15,50,12.60
2004,03,14,15,51,12.60
2004,03,14,15,52,12.70
2004,03,14,15,53,12.80
2004,03,14,15,54,12.90
2004,03,14,15,55,12.90
2004,03,14,15,56,12.80
2004,03,14,15,57,12.70
2004,03,14,15,58,12.70
2004,03,14,15,59,12.80
2004,03,14,16,00,12.80
2004,03,14,16,01,12.70
2004,03,14,16,02,12.70
2004,03,14,16,03,12.80
2004,03,14,16,04,12.80
2004,03,14,16,05,12.60
2004,03,14,16,06,12.60
2004,03,14,16,07,12.70
2004,03,14,16,08,12.60
2004,03,14,16,09,12.40
2004,03,14,16,10,12.40
2004,03,14,16,11,12.40
2004,03,14,16,12,12.50
2004,03,14,16,13,12.50
2004,03,14,16,14,12.50
2004,03,14,16,15,12.50
2004,03,14,16,16,12.50
2004,03,14,16,17,12.60
2004,03,14,16,18,12.50
2004,03,14,16,19,12.40
2004,03,14,16,20,12.50
2004,03,14,16,21,12.40
2004,03,14,16,22,12.20
2004,03,14,16,23,12.10
2004,03,14,16,24,12.10
2004,03,14,16,25,11.90
2004,03,14,16,26,11.90
2004,03,14,16,27,11.90
2004,03,14,16,28,12.00
2004,03,14,16,29,12.10
2004,03,14,16,30,12.10
2004,03,14,16,31,12.10
2004,03,14,16,32,12.10
2004,03,14,16,33,12.10
2004,03,14,16,34,12.10
2004,03,14,16,35,12.00
2004,03,14,16,36,12.10
2004,03,14,16,37,12.00
2004,03,14,16,38,11.80
2004,03,14,16,39,11.80
2004,03,14,16,40,11.80
2004,03,14,16,41,11.80
2004,03,14,16,42,11.80
2004,03,14,16,43,11.80
2004,03,14,16,44,11.80
2004,03,14,16,45,11.80
2004,03,14,16,46,11.70
2004,03,14,16,47,11.70
2004,03,14,16,48,11.70
2004,03,14,16,49,11.70
2004,03,14,16,50,11.70
2004,03,14,16,51,11.70
2004,03,14,16,52,11.70
2004,03,14,16,53,11.60
2004,03,14,16,54,11.50
2004,03,14,16,55,11.60
2004,03,14,16,56,11.60
2004,03,14,16,57,11.50
2004,03,14,16,58,11.60
2004,03,14,16,59,11.50
2004,03,14,17,00,11.40
2004,03,14,17,01,11.40
2004,03,14,17,02,11.40
2004,03,14,17,03,11.40
2004,03,14,17,04,11.50
2004,03,14,17,05,11.60
2004,03,14,17,06,11.60
2004,03,14,17,07,11.50
2004,03,14,17,08,11.30
2004,03,14,17,09,11.20
2004,03,14,17,10,11.00
2004,03,14,17,11,11.00
2004,03,14,17,12,11.00
2004,03,14,17,13,11.00
2004,03,14,17,14,10.90
2004,03,14,17,15,10.90
2004,03,14,17,16,10.90
2004,03,14,17,17,10.90
2004,03,14,17,18,10.90
2004,03,14,17,19,10.90
2004,03,14,17,20,10.90
2004,03,14,17,21,10.90
2004,03,14,17,22,10.90
2004,03,14,17,23,10.90
2004,03,14,17,24,10.80
2004,03,14,17,25,10.70
2004,03,14,17,26,10.60
2004,03,14,17,27,10.50
2004,03,14,17,28,10.50
2004,03,14,17,29,10.50
2004,03,14,17,30,10.50
2004,03,14,17,31,10.50
2004,03,14,17,32,10.50
2004,03,14,17,33,10.50
2004,03,14,17,34,10.50
2004,03,14,17,35,10.60
2004,03,14,17,36,10.60
2004,03,14,17,37,10.50
2004,03,14,17,38,10.50
2004,03,14,17,39,10.40
2004,03,14,17,40,10.40
2004,03,14,17,41,10.40
2004,03,14,17,42,10.40
2004,03,14,17,43,10.40
2004,03,14,17,44,10.40
2004,03,14,17,45,10.40
2004,03,14,17,46,10.40
2004,03,14,17,47,10.40
2004,03,14,17,48,10.40
2004,03,14,17,49,10.40
2004,03,14,17,50,10.30
2004,03,14,17,51,10.30
2004,03,14,17,52,10.30
2004,03,14,17,53,10.30
2004,03,14,17,54,10.20
2004,03,14,17,55,10.20
2004,03,14,17,56,10.20
2004,03,14,17,57,10.10
2004,03,14,17,58,10.00
2004,03,14,17,59,10.00
2004,03,14,18,00,10.00
2004,03,14,18,01,10.10
2004,03,14,18,02,10.10
2004,03,14,18,03,10.10
2004,03,14,18,04,10.00
2004,03,14,18,05,9.90
2004,03,14,18,06,9.90
2004,03,14,18,07,9.80
2004,03,14,18,08,9.90
2004,03,14,18,09,9.90
2004,03,14,18,10,9.90
2004,03,14,18,11,9.90
2004,03,14,18,12,9.90
2004,03,14,18,13,9.90
2004,03,14,18,14,9.90
2004,03,14,18,15,9.80
2004,03,14,18,16,9.70
2004,03,14,18,17,9.70
2004,03,14,18,18,9.70
2004,03,14,18,19,9.60
2004,03,14,18,20,9.60
2004,03,14,18,21,9.60
2004,03,14,18,22,9.60
2004,03,14,18,23,9.50
2004,03,14,18,24,9.50
2004,03,14,18,25,9.50
2004,03,14,18,26,9.50
2004,03,14,18,27,9.50
2004,03,14,18,28,9.50
2004,03,14,18,29,9.50
2004,03,14,18,30,9.40
2004,03,14,18,31,9.30
2004,03,14,18,32,9.20
2004,03,14,18,33,9.30
2004,03,14,18,34,9.30
2004,03,14,18,35,9.40
2004,03,14,18,36,9.30
2004,03,14,18,37,9.30
2004,03,14,18,38,9.20
2004,03,14,18,39,9.20
2004,03,14,18,40,9.20
2004,03,14,18,41,9.10
2004,03,14,18,42,9.20
2004,03,14,18,43,9.20
2004,03,14,18,44,9.20
2004,03,14,18,45,9.20
2004,03,14,18,46,9.20
2004,03,14,18,47,9.20
2004,03,14,18,48,9.20
2004,03,14,18,49,9.20
2004,03,14,18,50,9.20
2004,03,14,18,51,9.20
2004,03,14,18,52,9.20
2004,03,14,18,53,9.20
2004,03,14,18,54,9.20
2004,03,14,18,55,9.20
2004,03,14,18,56,9.20
2004,03,14,18,57,9.20
2004,03,14,18,58,9.20
2004,03,14,18,59,9.20
2004,03,14,19,00,9.20
2004,03,14,19,01,9.20
2004,03,14,19,02,9.20
2004,03,14,19,03,9.30
2004,03,14,19,04,9.30
2004,03,14,19,05,9.30
2004,03,14,19,06,9.20
2004,03,14,19,07,9.20
2004,03,14,19,08,9.20
2004,03,14,19,09,9.20
2004,03,14,19,10,9.20
2004,03,14,19,11,9.10
2004,03,14,19,12,9.10
2004,03,14,19,13,9.10
2004,03,14,19,14,9.10
2004,03,14,19,15,9.10
2004,03,14,19,16,9.10
2004,03,14,19,17,9.00
2004,03,14,19,18,9.00
2004,03,14,19,19,9.10
2004,03,14,19,20,9.00
2004,03,14,19,21,9.00
2004,03,14,19,22,9.00
2004,03,14,19,23,9.10
2004,03,14,19,24,9.20
2004,03,14,19,25,9.20
2004,03,14,19,26,9.20
2004,03,14,19,27,9.10
2004,03,14,19,28,9.10
2004,03,14,19,29,9.00
2004,03,14,19,30,9.00
2004,03,14,19,31,9.00
2004,03,14,19,32,9.10
2004,03,14,19,33,9.00
2004,03,14,19,34,9.00
2004,03,14,19,35,9.00
2004,03,14,19,36,8.90
2004,03,14,19,37,8.90
2004,03,14,19,38,8.90
2004,03,14,19,39,8.90
2004,03,14,19,40,8.90
2004,03,14,19,41,8.90
2004,03,14,19,42,8.90
2004,03,14,19,43,8.80
2004,03,14,19,44,8.70
2004,03,14,19,45,8.70
2004,03,14,19,46,8.70
2004,03,14,19,47,8.60
2004,03,14,19,48,8.60
2004,03,14,19,49,8.50
2004,03,14,19,50,8.40
2004,03,14,19,51,8.40
2004,03,14,19,52,8.30
2004,03,14,19,53,8.20
2004,03,14,19,54,8.20
2004,03,14,19,55,8.20
2004,03,14,19,56,8.20
2004,03,14,19,57,8.20
2004,03,14,19,58,8.10
2004,03,14,19,59,8.10
2004,03,14,20,00,8.00
2004,03,14,20,01,8.00
2004,03,14,20,02,7.90
2004,03,14,20,03,7.90
2004,03,14,20,04,8.00
2004,03,14,20,05,7.90
2004,03,14,20,06,8.00
2004,03,14,20,07,7.90
2004,03,14,20,08,7.90
2004,03,14,20,09,7.80
2004,03,14,20,10,7.80
2004,03,14,20,11,7.80
2004,03,14,20,12,7.80
2004,03,14,20,13,7.80
2004,03,14,20,14,7.80
2004,03,14,20,15,7.80
2004,03,14,20,16,7.80
2004,03,14,20,17,7.90
2004,03,14,20,18,7.90
2004,03,14,20,19,7.90
2004,03,14,20,20,7.90
2004,03,14,20,21,7.80
2004,03,14,20,22,7.80
2004,03,14,20,23,7.80
2004,03,14,20,24,7.80
2004,03,14,20,25,7.80
2004,03,14,20,26,7.90
2004,03,14,20,27,7.90
2004,03,14,20,28,7.90
2004,03,14,20,29,7.90
2004,03,14,20,30,7.90
2004,03,14,20,31,7.80
2004,03,14,20,32,7.90
2004,03,14,20,33,7.90
2004,03,14,20,34,7.90
2004,03,14,20,35,7.80
2004,03,14,20,36,7.80
2004,03,14,20,37,7.80
2004,03,14,20,38,7.80
2004,03,14,20,39,7.80
2004,03,14,20,40,7.80
2004,03,14,20,41,7.80
2004,03,14,20,42,7.80
2004,03,14,20,43,7.80
2004,03,14,20,44,7.80
2004,03,14,20,45,7.90
2004,03,14,20,46,7.90
2004,03,14,20,47,7.90
2004,03,14,20,48,7.90
2004,03,14,20,49,7.90
2004,03,14,20,50,7.90
2004,03,14,20,51,8.00
2004,03,14,20,52,8.00
2004,03,14,20,53,8.10
2004,03,14,20,54,8.10
2004,03,14,20,55,8.10
2004,03,14,20,56,8.00
2004,03,14,20,57,8.00
2004,03,14,20,58,8.10
2004,03,14,20,59,8.10
2004,03,14,21,00,8.20
2004,03,14,21,01,8.20
2004,03,14,21,02,8.20
2004,03,14,21,03,8.20
2004,03,14,21,04,8.20
2004,03,14,21,05,8.20
2004,03,14,21,06,8.20
2004,03,14,21,07,8.10
2004,03,14,21,08,8.10
2004,03,14,21,09,8.00
2004,03,14,21,10,8.00
2004,03,14,21,11,7.80
2004,03,14,21,12,7.80
2004,03,14,21,13,7.80
2004,03,14,21,14,7.80
2004,03,14,21,15,7.80
2004,03,14,21,16,7.70
2004,03,14,21,17,7.70
2004,03,14,21,18,7.70
2004,03,14,21,19,7.70
2004,03,14,21,20,7.70
2004,03,14,21,21,7.70
2004,03,14,21,22,7.70
2004,03,14,21,23,7.70
2004,03,14,21,24,7.60
2004,03,14,21,25,7.60
2004,03,14,21,26,7.70
2004,03,14,21,27,7.60
2004,03,14,21,28,7.60
2004,03,14,21,29,7.60
2004,03,14,21,30,7.50
2004,03,14,21,31,7.50
2004,03,14,21,32,7.50
2004,03,14,21,33,7.60
2004,03,14,21,34,7.60
2004,03,14,21,35,7.60
2004,03,14,21,36,7.60
2004,03,14,21,37,7.60
2004,03,14,21,38,7.60
2004,03,14,21,39,7.50
2004,03,14,21,40,7.50
2004,03,14,21,41,7.50
2004,03,14,21,42,7.50
2004,03,14,21,43,7.50
2004,03,14,21,44,7.50
2004,03,14,21,45,7.50
2004,03,14,21,46,7.50
2004,03,14,21,47,7.50
2004,03,14,21,48,7.60
2004,03,14,21,49,7.60
2004,03,14,21,50,7.60
2004,03,14,21,51,7.60
2004,03,14,21,52,7.60
2004,03,14,21,53,7.60
2004,03,14,21,54,7.60
2004,03,14,21,55,7.50
2004,03,14,21,56,7.50
2004,03,14,21,57,7.40
2004,03,14,21,58,7.40
2004,03,14,21,59,7.30
2004,03,14,22,00,7.30
2004,03,14,22,01,7.30
2004,03,14,22,02,7.30
2004,03,14,22,03,7.30
2004,03,14,22,04,7.30
2004,03,14,22,05,7.30
2004,03,14,22,06,7.40
2004,03,14,22,07,7.40
2004,03,14,22,08,7.50
2004,03,14,22,09,7.70
2004,03,14,22,10,7.70
2004,03,14,22,11,7.70
2004,03,14,22,12,7.70
2004,03,14,22,13,7.70
2004,03,14,22,14,7.80
2004,03,14,22,15,7.80
2004,03,14,22,16,7.80
2004,03,14,22,17,7.70
2004,03,14,22,18,7.70
2004,03,14,22,19,7.70
2004,03,14,22,20,7.60
2004,03,14,22,21,7.50
2004,03,14,22,22,7.50
2004,03,14,22,23,7.40
2004,03,14,22,24,7.40
2004,03,14,22,25,7.30
2004,03,14,22,26,7.30
2004,03,14,22,27,7.30
2004,03,14,22,28,7.30
2004,03,14,22,29,7.30
2004,03,14,22,30,7.30
2004,03,14,22,31,7.30
2004,03,14,22,32,7.20
2004,03,14,22,33,7.20
2004,03,14,22,34,7.20
2004,03,14,22,35,7.20
2004,03,14,22,36,7.20
2004,03,14,22,37,7.20
2004,03,14,22,38,7.30
2004,03,14,22,39,7.20
2004,03,14,22,40,7.20
2004,03,14,22,41,7.10
2004,03,14,22,42,7.20
2004,03,14,22,43,7.20
2004,03,14,22,44,7.30
2004,03,14,22,45,7.30
2004,03,14,22,46,7.30
2004,03,14,22,47,7.30
2004,03,14,22,48,7.30
2004,03,14,22,49,7.30
2004,03,14,22,50,7.30
2004,03,14,22,51,7.30
2004,03,14,22,52,7.30
2004,03,14,22,53,7.30
2004,03,14,22,54,7.30
2004,03,14,22,55,7.30
2004,03,14,22,56,7.30
2004,03,14,22,57,7.30
2004,03,14,22,58,7.30
2004,03,14,22,59,7.30
2004,03,14,23,00,7.30
2004,03,14,23,01,7.30
2004,03,14,23,02,7.30
2004,03,14,23,03,7.30
2004,03,14,23,04,7.30
2004,03,14,23,05,7.30
2004,03,14,23,06,7.30
2004,03,14,23,07,7.30
2004,03,14,23,08,7.30
2004,03,14,23,09,7.30
2004,03,14,23,10,7.30
2004,03,14,23,11,7.30
2004,03,14,23,12,7.30
2004,03,14,23,13,7.30
2004,03,14,23,14,7.30
2004,03,14,23,15,7.30
2004,03,14,23,16,7.30
2004,03,14,23,17,7.30
2004,03,14,23,18,7.30
2004,03,14,23,19,7.30
2004,03,14,23,20,7.30
2004,03,14,23,21,7.30
2004,03,14,23,22,7.30
2004,03,14,23,23,7.30
2004,03,14,23,24,7.30
2004,03,14,23,25,7.30
2004,03,14,23,26,7.30
2004,03,14,23,27,7.30
2004,03,14,23,28,7.30
2004,03,14,23,29,7.30
2004,03,14,23,30,7.30
2004,03,14,23,31,7.30
2004,03,14,23,32,7.30
2004,03,14,23,33,7.30
2004,03,14,23,34,7.30
2004,03,14,23,35,7.30
2004,03,14,23,36,7.30
2004,03,14,23,37,7.30
2004,03,14,23,38,7.30
2004,03,14,23,39,7.30
2004,03,14,23,40,7.30
2004,03,14,23,41,7.30
2004,03,14,23,42,7.20
2004,03,14,23,43,7.10
2004,03,14,23,44,7.20
2004,03,14,23,45,7.20
2004,03,14,23,46,7.20
2004,03,14,23,47,7.30
2004,03,14,23,48,7.30
2004,03,14,23,49,7.30
2004,03,14,23,50,7.30
2004,03,14,23,51,7.30
2004,03,14,23,52,7.30
2004,03,14,23,53,7.30
2004,03,14,23,54,7.30
2004,03,14,23,55,7.30
2004,03,14,23,56,7.30
2004,03,14,23,57,7.30
2004,03,14,23,58,7.30
2004,03,14,23,59,7.30
